Location: Cheyres
(46.8153°N, 6.7877°E)
Time: 03:41:22
(UTC+00:00)

Cosmos 2228 Rocket - Pass Details

Date: 11 May 2021
Orbit: 618 x 651 km, 82.5° (Epoch: 18 June)

Event Time Altitude Azimuth Distance (km) Brightness Sun altitude
Exits shadow 21:45:33 35° 214° (SW) 1,010 3.9 -21.0°
Maximum altitude 21:47:14 62° 281° (W) 707 3.4 -21.1°
Drops below altitude 10° 21:51:41 10° 3° (N) 2,026 6.6 -21.4°
Sets 21:53:59 0° 7° (N) 2,944 7.5 -21.6°
